Richmond, KY

6:23 AM EDT on April 27, 2017 (GMT -0400)
Richmond

Weather History for KI39 - January, 2012

Change the Weather History Date:

Thursday, January 12, 2012

  Actual Average (KLOZ) Record (KLOZ)
Temperature  
Mean Temperature 34 °F -  
Max Temperature 46 °F 41 °F 68 °F (1995)
Min Temperature 23 °F 22 °F -4 °F (1981)
Degree Days  
Heating Degree Days 30    
Moisture  
Dew Point 37 °F    
Average Humidity 90    
Maximum Humidity 100    
Minimum Humidity 74    
Precipitation  
Precipitation 0.00 in - - ()
Sea Level Pressure  
Sea Level Pressure 29.56 in    
Wind  
Wind Speed 14 mph (WSW)    
Max Wind Speed 25 mph    
Max Gust Speed 39 mph    
Visibility 8 miles    
Events      
Averages and records for this station are not official NWS values.
T = Trace of Precipitation, MM = Missing Value Source: NWS Daily Summary

Daily Weather History Graph

Daily Weather History Graph

Search for Another Location

Airport or City:

Trip Planner

Search our weather history database for the weather conditions in past years. The results will help you decide how hot, cold, wet, or windy it might be!

Date:

Astronomy

Jan. 12, 2012 Rise Set
Actual Time 7:52 AM EST 5:39 PM EST
Civil Twilight 7:23 AM EST 6:07 PM EST
Nautical Twilight 6:50 AM EST 6:40 PM EST
Astronomical Twilight 6:19 AM EST 7:11 PM EST
Moon 9:38 PM EST (1/12) 9:40 AM EST (1/12)
Length of Visible Light 10h 44m
Length of Day
9h 47m
Waning Gibbous, 87% of the Moon is Illuminated
Jan 12
Waning Gibbous
Jan 16
Last Quarter
Jan 23
New
Jan 30
First Quarter
Feb 7
Full

Hourly Weather History & Observations

Time (EST) Temp. Windchill Dew Point Humidity Pressure Visibility Wind Dir Wind Speed Gust Speed Precip Events Conditions
12:15 AM 44.6 °F 38.8 °F 42.8 °F 93% 29.52 in 4.0 mi WSW 11.5 mph 21.9 mph N/A   Overcast
12:35 AM 44.6 °F 38.4 °F 42.8 °F 93% 29.52 in 4.0 mi West 12.7 mph - N/A   Overcast
12:55 AM 44.6 °F 37.8 °F 42.8 °F 93% 29.53 in 10.0 mi WSW 15.0 mph 23.0 mph N/A   Overcast
1:15 AM 44.6 °F 37.4 °F 41.0 °F 87% 29.53 in 10.0 mi WSW 16.1 mph 21.9 mph N/A   Overcast
1:35 AM 44.6 °F 37.2 °F 41.0 °F 87% 29.53 in 10.0 mi WSW 17.3 mph 23.0 mph N/A   Overcast
1:55 AM 44.6 °F 37.8 °F 42.8 °F 93% 29.53 in 10.0 mi WSW 15.0 mph 25.3 mph N/A   Overcast
2:15 AM 44.6 °F 37.2 °F 42.8 °F 93% 29.54 in 10.0 mi WSW 17.3 mph 23.0 mph N/A   Overcast
2:35 AM 44.6 °F 38.4 °F 42.8 °F 93% 29.55 in 10.0 mi WSW 12.7 mph 17.3 mph N/A   Overcast
2:55 AM 44.6 °F 38.8 °F 42.8 °F 93% 29.55 in 10.0 mi WSW 11.5 mph 19.6 mph N/A   Overcast
3:15 AM 44.6 °F 39.7 °F 42.8 °F 93% 29.56 in 5.0 mi WSW 9.2 mph 17.3 mph N/A   Overcast
3:35 AM 44.6 °F 38.8 °F 42.8 °F 93% 29.56 in 5.0 mi WSW 11.5 mph - N/A   Overcast
3:55 AM 44.6 °F 37.2 °F 42.8 °F 93% 29.56 in 5.0 mi WSW 17.3 mph 21.9 mph N/A   Overcast
4:15 AM 44.6 °F 38.8 °F 42.8 °F 93% 29.56 in 7.0 mi WSW 11.5 mph - N/A   Overcast
4:35 AM 44.6 °F 38.8 °F 42.8 °F 93% 29.56 in 10.0 mi WSW 11.5 mph 16.1 mph N/A   Overcast
4:55 AM 44.6 °F 38.8 °F 42.8 °F 93% 29.56 in 7.0 mi WSW 11.5 mph - N/A   Overcast
5:15 AM 44.6 °F 38.8 °F 41.0 °F 87% 29.56 in 10.0 mi WSW 11.5 mph 17.3 mph N/A   Overcast
5:35 AM 42.8 °F 36.2 °F 41.0 °F 93% 29.56 in 7.0 mi WSW 12.7 mph 19.6 mph N/A   Overcast
5:55 AM 42.8 °F 37.0 °F 42.8 °F 100% 29.56 in 3.0 mi WSW 10.4 mph - N/A   Overcast
6:15 AM 42.8 °F 36.6 °F 42.8 °F 100% 29.57 in 7.0 mi WSW 11.5 mph - N/A   Overcast
6:35 AM 44.6 °F 39.7 °F 42.8 °F 93% 29.57 in 10.0 mi WSW 9.2 mph 16.1 mph N/A   Overcast
6:55 AM 44.6 °F 39.2 °F 42.8 °F 93% 29.56 in 5.0 mi SW 10.4 mph - N/A   Overcast
7:15 AM 44.6 °F 39.7 °F 42.8 °F 93% 29.56 in 10.0 mi SW 9.2 mph - N/A   Overcast
7:55 AM 44.6 °F 39.2 °F 42.8 °F 93% 29.56 in 10.0 mi SW 10.4 mph - N/A   Overcast
8:15 AM 44.6 °F 39.7 °F 42.8 °F 93% 29.57 in 10.0 mi SW 9.2 mph - N/A   Overcast
8:35 AM 44.6 °F 40.2 °F 42.8 °F 93% 29.57 in 5.0 mi SW 8.1 mph - N/A   Overcast
8:55 AM 44.6 °F 39.7 °F 42.8 °F 93% 29.57 in 10.0 mi SW 9.2 mph - N/A   Overcast
9:15 AM 44.6 °F 39.7 °F 42.8 °F 93% 29.57 in 10.0 mi SW 9.2 mph - N/A   Overcast
9:35 AM 44.6 °F 38.8 °F 42.8 °F 93% 29.58 in 3.0 mi SW 11.5 mph 16.1 mph N/A   Overcast
10:15 AM 44.6 °F 39.2 °F 42.8 °F 93% 29.57 in 7.0 mi SW 10.4 mph - N/A   Overcast
10:35 AM 46.4 °F 42.4 °F 42.8 °F 87% 29.56 in 10.0 mi SW 8.1 mph 17.3 mph N/A   Overcast
10:55 AM 46.4 °F 40.7 °F 42.8 °F 87% 29.55 in 10.0 mi SW 12.7 mph - N/A   Overcast
11:15 AM 46.4 °F 40.7 °F 42.8 °F 87% 29.53 in 10.0 mi SW 12.7 mph - N/A   Overcast
11:35 AM 46.4 °F 41.5 °F 41.0 °F 81% 29.53 in 10.0 mi SW 10.4 mph 19.6 mph N/A   Overcast
11:55 AM 46.4 °F 40.4 °F 41.0 °F 81% 29.52 in 10.0 mi SSW 13.8 mph - N/A   Overcast
12:35 PM 44.6 °F 38.8 °F 42.8 °F 93% 29.49 in 5.0 mi SSW 11.5 mph 18.4 mph N/A   Overcast
12:55 PM 44.6 °F 38.8 °F 42.8 °F 93% 29.47 in 4.0 mi SSW 11.5 mph - N/A   Overcast
1:15 PM 46.4 °F 41.9 °F 42.8 °F 87% 29.46 in 10.0 mi South 9.2 mph - N/A   Overcast
1:35 PM 46.4 °F 41.5 °F 42.8 °F 87% 29.44 in 10.0 mi South 10.4 mph - N/A   Overcast
1:55 PM 46.4 °F 40.4 °F 42.8 °F 87% 29.43 in 10.0 mi SSW 13.8 mph 20.7 mph N/A   Overcast
2:15 PM 46.4 °F 39.8 °F 42.8 °F 87% 29.42 in 10.0 mi SSW 16.1 mph 21.9 mph N/A   Overcast
2:35 PM 39.2 °F 28.3 °F 37.4 °F 93% 29.47 in 3.0 mi West 25.3 mph 33.4 mph N/A   Overcast
2:55 PM 37.4 °F 26.4 °F 33.8 °F 87% 29.49 in 10.0 mi West 23.0 mph 34.5 mph N/A   Overcast
3:15 PM 33.8 °F 21.9 °F 32.0 °F 93% 29.51 in 10.0 mi WNW 21.9 mph 33.4 mph N/A   Overcast
3:35 PM 33.8 °F 23.2 °F 32.0 °F 93% 29.51 in 10.0 mi West 17.3 mph 27.6 mph N/A   Overcast
3:55 PM 33.8 °F 21.6 °F 30.2 °F 87% 29.51 in 10.0 mi West 23.0 mph 27.6 mph N/A   Overcast
4:15 PM 32.0 °F 20.1 °F 30.2 °F 93% 29.53 in 10.0 mi West 19.6 mph 31.1 mph N/A   Overcast
4:35 PM 32.0 °F 20.5 °F 30.2 °F 93% 29.53 in 10.0 mi West 18.4 mph 21.9 mph N/A   Overcast
4:55 PM 32.0 °F 20.8 °F 30.2 °F 93% 29.55 in 3.0 mi West 17.3 mph 24.2 mph N/A   Overcast
5:15 PM 30.2 °F 18.1 °F 28.4 °F 93% 29.56 in 1.8 mi West 18.4 mph 28.8 mph N/A   Overcast
5:35 PM 28.4 °F 15.1 °F 28.4 °F 100% 29.58 in 3.0 mi West 20.7 mph 25.3 mph N/A   Overcast
5:55 PM 28.4 °F 14.1 °F 24.8 °F 86% 29.61 in 2.0 mi West 24.2 mph 31.1 mph N/A   Overcast
6:15 PM 26.6 °F 13.1 °F 23.0 °F 86% 29.62 in 2.5 mi West 19.6 mph 35.7 mph N/A   Overcast
6:35 PM 24.8 °F 9.3 °F 23.0 °F 93% 29.64 in 3.0 mi West 24.2 mph 35.7 mph N/A   Overcast
6:55 PM 24.8 °F 10.0 °F 19.4 °F 80% 29.66 in 10.0 mi West 21.9 mph 39.1 mph N/A   Overcast
7:15 PM 24.8 °F 9.0 °F 19.4 °F 80% 29.68 in 5.0 mi West 25.3 mph 35.7 mph N/A   Overcast
7:35 PM 24.8 °F 10.7 °F 19.4 °F 80% 29.70 in 7.0 mi West 19.6 mph 33.4 mph N/A   Overcast
7:55 PM 24.8 °F 10.0 °F 19.4 °F 80% 29.71 in 10.0 mi West 21.9 mph 34.5 mph N/A   Overcast
8:15 PM 23.0 °F 8.3 °F 19.4 °F 86% 29.73 in 2.5 mi West 19.6 mph 31.1 mph N/A   Overcast
8:35 PM 23.0 °F 8.3 °F 17.6 °F 80% 29.74 in 5.0 mi West 19.6 mph - N/A   Overcast
9:15 PM 23.0 °F 8.7 °F 15.8 °F 74% 29.75 in 10.0 mi WSW 18.4 mph 23.0 mph N/A   Overcast
9:35 PM 23.0 °F 10.6 °F 17.6 °F 80% 29.76 in 10.0 mi WSW 13.8 mph 25.3 mph N/A   Overcast
9:55 PM 23.0 °F 11.7 °F 17.6 °F 80% 29.76 in 10.0 mi WSW 11.5 mph 19.6 mph N/A   Overcast
10:15 PM 23.0 °F 10.6 °F 17.6 °F 80% 29.76 in 7.0 mi WSW 13.8 mph 17.3 mph N/A   Overcast
10:35 PM 23.0 °F 11.7 °F 19.4 °F 86% 29.76 in 3.0 mi West 11.5 mph 17.3 mph N/A   Overcast
10:55 PM 21.2 °F 10.1 °F 19.4 °F 93% 29.77 in 0.8 mi West 10.4 mph - N/A   Overcast
11:15 PM 23.0 °F 9.2 °F 19.4 °F 86% 29.77 in 4.0 mi West 17.3 mph 24.2 mph N/A   Overcast
11:35 PM 23.0 °F 9.2 °F 17.6 °F 80% 29.77 in 7.0 mi West 17.3 mph 25.3 mph N/A   Overcast
11:55 PM 23.0 °F 10.1 °F 17.6 °F 80% 29.77 in 7.0 mi West 15.0 mph 19.6 mph N/A   Overcast